Regional Weather Roundup
Issued by NWS

Home | Current Version | Previous Version | Text Only | Print | Product List | Glossary On
Versions: 1 2 3 4 5 6 7 8 9 10 11 12 13 14 15 16 17 18 19 20 21 22 23 24 25 26 27 28 29 30 31 32 33 34 35 36 37 38 39 40 41 42 43 44 45 46 47 48 49 50
000
ASUS43 KTOP 230259
RWRKS

WEATHER ROUNDUP FOR KANSAS
NATIONAL WEATHER SERVICE GOODLAND KS
900 PM CST MON JAN 22 2018

NOTE:  "FAIR" INDICATES FEW OR NO CLOUDS BELOW 12,000 FEET WITH NO
SIGNIFICANT WEATHER AND/OR OBSTRUCTIONS TO VISIBILITY.

KSZ001>006-013>018-027>032-041>047-230400-
NORTHWEST KANSAS

CITY           SKY/WX    TMP DP  RH WIND       PRES   REMARKS
GOODLAND       CLEAR     17  11  77 W15       30.07R WCI   2
HAYS           CLEAR     29  22  75 NW15      30.03R WCI  18
HILL CITY      CLEAR     29  20  69 NW15      30.02R WCI  18
RUSSELL        CLEAR     31  24  75 NW17      30.00R WCI  19
$$

KSZ061>065-074>080-084>089-230400-
SOUTHWEST KANSAS

CITY           SKY/WX    TMP DP  RH WIND       PRES   REMARKS
DODGE CITY     CLEAR     31  16  54 NW16      30.07R WCI  20
GARDEN CITY    CLEAR     27  16  63 NW12      30.07S WCI  17
GREAT BEND     CLEAR     31  23  72 NW15      30.02R WCI  20
LIBERAL        CLEAR     27  12  53 NW13      30.12R WCI  16
$$

KSZ066>073-081>083-090>101-230400-
SOUTHEAST KANSAS

CITY           SKY/WX    TMP DP  RH WIND       PRES   REMARKS
COFFEYVILLE    CLOUDY    40  28  62 NW22G33   29.92R WCI  30
HUTCHINSON     CLEAR     34  25  69 NW18      29.97R WCI  23
MEDICINE LODGE   N/A     43  19  38 NW12      30.04R
NEWTON         CLEAR     33  25  72 NW20G29   29.94R WCI  21
PARSONS        CLOUDY    37  29  72 NW16G28   29.91R WCI  28
WICHITA INTL   PTCLDY    37  24  59 NW23G35   29.96R WCI  26
WICHITA JABRA  CLEAR     36  25  64 NW21G30   29.94R WCI  25
WINFIELD       PTCLDY    38  23  55 NW18      29.97R WCI  28
$$

KSZ007>012-019>026-033>040-048>060-102>105-230400-
NORTHEAST KANSAS

CITY           SKY/WX    TMP DP  RH WIND       PRES   REMARKS
CONCORDIA      PTCLDY    31  24  75 NW16G22   29.93R WCI  20
EMPORIA        CLOUDY    33  25  72 NW24G37   29.87R WCI  20
LAWRENCE       LGT SNOW  32  29  88 W21G29    29.79R FOG     WCI  20
MANHATTAN      MOCLDY    33  26  75 NW8       29.90R
OLATHE IND     CLOUDY    31  28  89 NW22G33   29.76R WCI  18
OLATHE EXE     CLOUDY    31  27  85 NW20G32   29.73R WCI  19
SALINA         CLEAR     35  26  69 NW22      29.94R WCI  23
TOPEKA BILLARD LGT SNOW  31  28  89 NW21G28   29.82R FOG     WCI  18
TOPEKA FORBES  LGT SNOW  31  27  85 NW24G33   29.81R FOG     WCI  17
$$




USA.gov is the U.S. government's official web portal to all federal, state and local government web resources and services.